Simultaneous Nadir Overpasses (SNOs) Predictions

Prediction of SNOs between NOAA-19 and METOP-C Satellite Orbit:

Table of predicted SNOs for the next 14.0 days since TLE Epoch: 2/12/2022
Index Date (NOAA-19) Time (NOAA-19) Lat,Lon (NOAA-19) SZA (NOAA-19 ) Date (METOP-C) Time (METOP-C) Lat,Lon (METOP-C) SZA (METOP-C ) Distance(km) Time Diff (sec)
1 02/17/2022 09:51:37 -80.77,-116.13 86.29 02/17/2022 09:52:44 -80.75,-116.05 86.27 2.02 67
2 02/17/2022 10:42:41 80.75, 51.60 93.73 02/17/2022 10:43:23 80.76, 51.45 93.74 2.90 42
3 02/17/2022 11:33:36 -80.76,-141.23 86.29 02/17/2022 11:34:05 -80.76,-141.19 86.27 1.17 29
4 02/17/2022 12:24:41 80.75, 26.13 93.71 02/17/2022 12:24:45 80.75, 25.96 93.70 3.14 4
5 02/17/2022 13:15:36 -80.76,-166.70 86.32 02/17/2022 13:15:27 -80.76,-166.68 86.32 0.26 9
6 02/17/2022 14:06:41 80.75, 0.67 93.68 02/17/2022 14:06:06 80.77, 0.82 93.70 3.09 35
7 02/17/2022 14:57:36 -80.75, 167.84 86.34 02/17/2022 14:56:49 -80.75, 167.83 86.36 0.80 47



Historial Predications of SNOs between NOAA-19 and METOP-C
